Regional Weather Roundup
Issued by NWS Glasgow, MT

Home | Current Version | Previous Version | Text Only | Print | Product List | Glossary On
Versions: 1 2 3 4 5 6 7 8 9 10 11 12 13 14 15 16 17 18 19 20 21 22 23 24 25 26 27 28 29 30 31 32 33 34 35 36 37 38 39 40 41 42 43 44 45 46 47 48 49 50
000
ASUS45 KGGW 010115
RWRGGW
HOURLY REGIONAL WEATHER ROUNDUP FOR NORTHEAST MONTANA
NATIONAL WEATHER SERVICE GLASGOW MONTANA
700 PM MDT FRI JUL 31 2015

NOTE: "FAIR" INDICATES FEW OR NO CLOUDS BELOW 12,000 FEET WITH NO
SIGNIFICANT WEATHER AND/OR OBSTRUCTIONS TO VISISBILITY.

NORTHEAST MONTANA


CITY           SKY/WX    TMP DP  RH WIND       PRES   REMARKS
GLASGOW        SUNNY     92  40  16 W10       29.97F
PLENTYWOOD       N/A     83  44  25 E6G16       N/A
WOLF POINT     SUNNY     94  44  17 NE8       29.96F
JORDAN           N/A     93  38  14 NW13      30.00F
WINNETT          N/A     91  33  12 NW10        N/A
SIDNEY         SUNNY    N/A N/A N/A NE10      29.97F
GLENDIVE       SUNNY     90  43  19 E5        29.99F
MALTA            N/A     92  45  19 W8          N/A

FORT PECK REPORTS


CITY           SKY/WX    TMP DP  RH WIND       PRES   REMARKS
FORT PECK        N/A     92  47  21 SW3         N/A
THE PINES        N/A     92  42  17 NE7         N/A

SOUTHEAST MONTANA


CITY           SKY/WX    TMP DP  RH WIND       PRES   REMARKS
BILLINGS       MOSUNNY   93  28  10 NE14      30.07F
MILES CITY     SUNNY     95  36  12 NW12      29.98F
BAKER          SUNNY     90  40  17 E10       30.05F
LIVINGSTON     SUNNY     89  26  10 NW14      30.16F

CENTRAL MONTANA


CITY           SKY/WX    TMP DP  RH WIND       PRES   REMARKS
HAVRE          SUNNY     92  34  13 N6        30.00F
LEWISTOWN      SUNNY     87  41  19 N7        30.13F
GREAT FALLS    SUNNY     89  27  10 S3        30.07F
CUT BANK       SUNNY     90  24   9 W9        30.06F
HELENA         SUNNY     93  29  10 W13       30.09F
BUTTE          SUNNY     85  24  11 NW8       30.24F
BOZEMAN        SUNNY     88  35  15 E5        30.16F

WESTERN MONTANA


CITY           SKY/WX    TMP DP  RH WIND       PRES   REMARKS
MISSOULA       SUNNY     93  27   9 S7        30.05F
KALISPELL      NOT AVBL

NORTH DAKOTA


CITY           SKY/WX    TMP DP  RH WIND       PRES   REMARKS
WILLISTON      SUNNY     87  46  24 NE8       30.01F
DICKINSON      SUNNY     81  57  43 E6        30.03F
MINOT          SUNNY     78  50  37 NW7       30.02F
BISMARCK       SUNNY     83  55  38 NE8       30.02F

SOUTHERN SASKATCHEWAN


CITY           SKY/WX    TMP DP  RH WIND       PRES   REMARKS
REGINA         MOSUNNY   81  50  34 NW3       30.04F
ESTEVAN        MOSUNNY   79  48  34 NW7       30.04F
SWIFT CURRENT  SUNNY     79  50  36 E14G21    30.03F




USA.gov is the U.S. government's official web portal to all federal, state and local government web resources and services.